GW1938 Weather Reports


Display with metric or nautical units.
time (UTC)temp
F
wind
direction
speed
MPH
gust
MPH
rain 1hr
in
rain 24hr
in
rain mn
in
humidity
%
barometer
mb
20260510060458 67 209 10.0 18.0 0.00 0.00 0.00 78 1025.8
20260510055957 68 202 8.0 14.0 0.00 0.00 0.00 78 1025.8
20260510054448 68 203 10.0 18.0 0.00 0.00 0.00 77 1025.6
20260510053946 68 207 8.0 17.0 0.00 0.00 0.00 77 1025.5
20260510053445 68 198 5.0 10.0 0.00 0.00 0.00 76 1025.6
20260510052942 67 200 10.0 17.0 0.00 0.00 0.00 77 1025.6
20260510051936 67 203 7.0 15.0 0.00 0.00 0.00 75 1025.4
20260510051433 68 207 7.0 15.0 0.00 0.00 0.00 75 1025.4
20260510050932 68 199 9.0 17.0 0.00 0.00 0.00 74 1025.3
20260510050430 68 192 8.0 16.0 0.00 0.00 0.00 73 1025.3
20260510044921 68 194 10.0 18.0 0.00 0.00 0.00 73 1025.3
20260510044420 68 207 11.0 17.0 0.00 0.00 0.00 73 1025.2
20260510043918 68 210 11.0 17.0 0.00 0.00 0.00 73 1025.2
20260510043416 68 210 9.0 17.0 0.00 0.00 0.00 72 1025.3
20260510042913 69 207 9.0 17.0 0.00 0.00 0.00 70 1025.2
20260510041909 70 215 7.0 14.0 0.00 0.00 0.00 68 1025.2
20260510040828 68 195 11.0 17.0 0.00 0.00 0.00 69 1025.2
20260510040326 69 204 10.0 18.0 0.00 0.00 0.00 67 1025.2
20260510035824 69 201 10.0 18.0 0.00 0.00 0.00 67 1025.2
20260510035322 69 205 7.0 13.0 0.00 0.00 0.00 65 1025.2
20260510034317 67 213 9.0 14.0 0.00 0.00 0.00 68 1025.1
20260510032809 69 210 10.0 17.0 0.00 0.00 0.00 62 1025.1
20260510032308 69 202 6.0 13.0 0.00 0.00 0.00 62 1025.2
20260510031302 68 208 8.0 16.0 0.00 0.00 0.00 64 1025.2
20260510030801 68 204 10.0 17.0 0.00 0.00 0.00 66 1025.3
20260510030259 68 204 12.0 18.0 0.00 0.00 0.00 65 1025.3
20260510025757 68 201 11.0 16.0 0.00 0.00 0.00 65 1025.4
20260510025256 69 206 10.0 15.0 0.00 0.00 0.00 64 1025.4
20260510024754 69 211 10.0 16.0 0.00 0.00 0.00 62 1025.4
20260510024252 69 192 7.0 13.0 0.00 0.00 0.00 61 1025.5
20260510023751 70 195 7.0 14.0 0.00 0.00 0.00 61 1025.5
20260510023248 70 207 6.0 13.0 0.00 0.00 0.00 61 1025.6
20260510022746 69 200 9.0 15.0 0.00 0.00 0.00 63 1025.5
20260510022244 69 205 8.0 14.0 0.00 0.00 0.00 63 1025.6
20260510021742 69 190 7.0 13.0 0.00 0.00 0.00 63 1025.7
20260510021241 69 199 8.0 13.0 0.00 0.00 0.00 63 1025.7
20260510020740 69 201 9.0 15.0 0.00 0.00 0.00 64 1025.9
20260510020238 69 208 9.0 15.0 0.00 0.00 0.00 62 1025.9
20260510014729 68 228 8.0 14.0 0.00 0.00 0.00 62 1026.0
20260510014227 67 279 5.0 9.0 0.00 0.00 0.00 67 1026.1
20260510013725 69 285 3.0 7.0 0.00 0.00 0.00 66 1026.2
20260510013224 69 265 2.0 5.0 0.00 0.00 0.00 68 1026.2
20260510012722 69 322 4.0 9.0 0.00 0.00 0.00 68 1026.3
20260510012221 68 316 3.0 8.0 0.00 0.00 0.00 69 1026.3
20260510011719 68 311 4.0 8.0 0.00 0.00 0.00 70 1026.2
20260510011218 67 316 2.0 5.0 0.00 0.00 0.00 70 1026.4
20260510010716 66 325 2.0 8.0 0.00 0.00 0.00 73 1026.4
20260510010214 66 312 3.0 6.0 0.00 0.00 0.00 73 1026.5
20260510005209 67 322 3.0 6.0 0.00 0.00 0.00 71 1026.6
20260510004707 66 322 3.0 8.0 0.00 0.00 0.00 73 1026.7
20260510004205 65 320 2.0 5.0 0.00 0.00 0.00 73 1026.7
20260510003705 65 326 2.0 5.0 0.00 0.00 0.00 75 1026.7
20260510003203 65 343 2.0 5.0 0.00 0.00 0.00 76 1026.8
20260510002701 64 324 2.0 5.0 0.00 0.00 0.00 78 1026.7
20260510002200 63 318 3.0 6.0 0.00 0.00 0.00 78 1026.7
20260510001658 63 279 5.0 10.0 0.00 0.00 0.00 80 1026.7
20260510001156 62 266 6.0 11.0 0.00 0.00 0.00 80 1026.7
20260510000653 62 276 6.0 11.0 0.00 0.00 0.00 79 1026.6
20260510000151 62 277 5.0 10.0 0.00 0.00 0.00 80 1026.6
20260509235650 61 283 5.0 9.0 0.00 0.00 0.00 79 1026.6
20260509235149 61 286 4.0 8.0 0.00 0.00 0.00 82 1026.5
20260509234647 61 274 5.0 8.0 0.00 0.00 0.00 81 1026.5
20260509234146 61 272 5.0 10.0 0.00 0.00 0.00 80 1026.5
20260509233645 61 265 6.0 9.0 0.00 0.00 0.00 80 1026.5
20260509232640 61 263 6.0 11.0 0.00 0.00 0.00 80 1026.4
20260509232138 61 262 6.0 11.0 0.00 0.00 0.00 80 1026.4
20260509231635 61 263 6.0 12.0 0.00 0.00 0.00 80 1026.4
20260509231133 60 264 7.0 12.0 0.00 0.00 0.00 81 1026.4
20260509230631 60 261 7.0 10.0 0.00 0.00 0.00 80 1026.3
20260509230059 60 261 7.0 11.0 0.00 0.00 0.00 81 1026.3
20260509225551 60 266 7.0 12.0 0.00 0.00 0.00 82 1026.3
20260509225050 59 266 8.0 14.0 0.00 0.00 0.00 82 1026.2
20260509224547 59 267 8.0 14.0 0.00 0.00 0.00 81 1026.2
20260509224044 59 261 8.0 14.0 0.00 0.00 0.00 81 1026.1
20260509223542 59 262 9.0 15.0 0.00 0.00 0.00 83 1026.3
20260509223039 59 262 9.0 16.0 0.00 0.00 0.00 81 1026.2
20260509222538 59 262 10.0 16.0 0.00 0.00 0.00 81 1026.2
20260509222037 59 256 11.0 17.0 0.00 0.00 0.00 80 1026.2
20260509221535 59 251 11.0 16.0 0.00 0.00 0.00 81 1026.2
20260509220531 59 257 10.0 16.0 0.00 0.00 0.00 82 1026.1
20260509220029 59 254 10.0 16.0 0.00 0.00 0.00 82 1026.1
20260509215528 59 260 8.0 13.0 0.00 0.00 0.00 84 1026.0
20260509215027 59 274 7.0 13.0 0.00 0.00 0.00 84 1026.0
20260509214524 58 281 6.0 11.0 0.00 0.00 0.00 86 1026.0
20260509214023 58 287 6.0 12.0 0.00 0.00 0.00 86 1025.9
20260509213522 58 306 5.0 10.0 0.00 0.00 0.00 86 1025.9
20260509213020 58 268 8.0 15.0 0.00 0.00 0.00 88 1025.8
20260509212519 58 255 11.0 15.0 0.00 0.00 0.00 87 1025.8
20260509212018 57 255 10.0 15.0 0.00 0.00 0.00 87 1025.8
20260509211517 57 256 11.0 17.0 0.00 0.00 0.00 88 1025.7
20260509211016 57 254 10.0 15.0 0.00 0.00 0.00 89 1025.7
20260509210513 57 255 10.0 16.0 0.00 0.00 0.00 89 1025.6
20260509205507 57 248 10.0 15.0 0.00 0.00 0.00 90 1025.5
20260509204501 57 253 11.0 15.0 0.00 0.00 0.00 90 1025.4
20260509203958 57 255 11.0 15.0 0.00 0.00 0.00 90 1025.3
20260509203456 57 252 11.0 15.0 0.00 0.00 0.00 90 1025.2
20260509202954 57 249 10.0 15.0 0.00 0.00 0.00 90 1025.2
20260509202453 57 249 10.0 15.0 0.00 0.00 0.00 90 1025.1
20260509201448 57 249 10.0 14.0 0.00 0.00 0.00 90 1025.0
20260509200946 57 251 11.0 16.0 0.00 0.00 0.00 90 1024.9
20260509200445 57 250 11.0 16.0 0.00 0.00 0.00 89 1024.8
20260509195943 57 248 10.0 14.0 0.00 0.00 0.00 90 1024.7
20260509195440 57 247 10.0 14.0 0.00 0.00 0.00 90 1024.6
20260509194939 57 252 11.0 16.0 0.00 0.00 0.00 90 1024.5
20260509193934 57 252 11.0 14.0 0.00 0.00 0.00 89 1024.5
20260509193431 57 253 11.0 15.0 0.00 0.00 0.00 89 1024.5
20260509192930 57 254 10.0 15.0 0.00 0.00 0.00 89 1024.4
20260509192428 57 255 10.0 14.0 0.00 0.00 0.00 89 1024.4
20260509191927 57 256 10.0 14.0 0.00 0.00 0.00 89 1024.4
20260509191426 57 253 10.0 14.0 0.00 0.00 0.00 89 1024.4
20260509190924 57 251 9.0 14.0 0.00 0.00 0.00 89 1024.3
20260509190423 58 255 9.0 15.0 0.00 0.00 0.00 89 1024.3
20260509185922 58 254 9.0 14.0 0.00 0.00 0.00 89 1024.2
20260509184916 58 260 7.0 14.0 0.00 0.00 0.00 89 1024.1
20260509184415 58 260 9.0 14.0 0.00 0.00 0.00 88 1024.0
20260509183410 58 256 10.0 15.0 0.00 0.00 0.00 88 1024.0
20260509182909 57 261 10.0 16.0 0.00 0.00 0.00 86 1023.9
20260509182407 57 257 10.0 16.0 0.00 0.00 0.00 86 1023.9
20260509180858 57 272 8.0 15.0 0.00 0.00 0.00 89 1023.8
20260509180356 57 266 8.0 14.0 0.00 0.00 0.00 89 1023.8
20260509175855 57 258 8.0 12.0 0.00 0.00 0.00 90 1023.7
20260509175353 57 258 10.0 14.0 0.00 0.00 0.00 89 1023.6
20260509174852 57 258 10.0 14.0 0.00 0.00 0.00 89 1023.5
20260509174350 57 258 9.0 14.0 0.00 0.00 0.00 89 1023.5
20260509173849 57 259 9.0 13.0 0.00 0.00 0.00 89 1023.4
20260509172844 57 254 10.0 14.0 0.00 0.00 0.00 88 1023.3
20260509172342 58 253 9.0 14.0 0.00 0.00 0.00 89 1023.3
20260509171839 58 250 10.0 14.0 0.00 0.00 0.00 89 1023.3
20260509171338 58 254 10.0 14.0 0.00 0.00 0.00 89 1023.3
20260509170837 58 252 9.0 13.0 0.00 0.00 0.00 89 1023.3
20260509170335 58 253 9.0 12.0 0.00 0.00 0.00 88 1023.3
20260509165834 58 252 10.0 14.0 0.00 0.00 0.00 87 1023.4
20260509165333 58 252 9.0 14.0 0.00 0.00 0.00 87 1023.4
20260509164832 58 250 8.0 14.0 0.00 0.00 0.00 87 1023.4
20260509164331 58 247 7.0 12.0 0.00 0.00 0.00 87 1023.4
20260509163830 58 249 9.0 12.0 0.00 0.00 0.00 87 1023.4
20260509163327 59 250 8.0 11.0 0.00 0.00 0.00 86 1023.4
20260509162826 59 251 8.0 12.0 0.00 0.00 0.00 86 1023.4
20260509161318 59 307 5.0 8.0 0.00 0.00 0.00 86 1023.6
20260509160816 59 308 6.0 10.0 0.00 0.00 0.00 86 1023.6
20260509160314 59 304 6.0 10.0 0.00 0.00 0.00 86 1023.6
20260509155813 59 292 6.0 11.0 0.00 0.00 0.00 85 1023.6
20260509155312 59 302 6.0 10.0 0.00 0.00 0.00 86 1023.5
20260509154811 59 315 6.0 10.0 0.00 0.00 0.00 87 1023.5
20260509154308 59 305 4.0 8.0 0.00 0.00 0.00 88 1023.5
20260509153806 59 289 5.0 8.0 0.00 0.00 0.00 87 1023.6
20260509153305 59 267 6.0 10.0 0.00 0.00 0.00 87 1023.6
20260509152803 59 276 5.0 10.0 0.00 0.00 0.00 86 1023.6
20260509152301 60 273 5.0 9.0 0.00 0.00 0.00 87 1023.6
20260509151758 59 264 7.0 11.0 0.00 0.00 0.00 85 1023.6
20260509151257 59 257 8.0 12.0 0.00 0.00 0.00 84 1023.6
20260509150756 59 254 8.0 11.0 0.00 0.00 0.00 85 1023.5
20260509150253 59 252 7.0 10.0 0.00 0.00 0.00 84 1023.5
20260509145752 59 250 8.0 11.0 0.00 0.00 0.00 84 1023.5
20260509145251 59 251 8.0 12.0 0.00 0.00 0.00 83 1023.4
20260509144750 59 256 9.0 12.0 0.00 0.00 0.00 84 1023.4
20260509144248 59 252 8.0 12.0 0.00 0.00 0.00 84 1023.4
20260509142237 59 250 8.0 12.0 0.00 0.00 0.00 85 1023.5
20260509141230 59 253 10.0 14.0 0.00 0.00 0.00 85 1023.4
20260509140729 59 254 9.0 12.0 0.00 0.00 0.00 86 1023.5
20260509140226 59 255 10.0 12.0 0.00 0.00 0.00 88 1023.4
20260509134719 59 261 9.0 14.0 0.00 0.00 0.00 87 1023.5
20260509134217 60 258 9.0 13.0 0.00 0.00 0.00 87 1023.5
20260509133212 60 258 9.0 13.0 0.00 0.00 0.00 83 1023.5
20260509132206 60 252 8.0 12.0 0.00 0.00 0.00 81 1023.5
20260509131201 60 268 6.0 10.0 0.00 0.00 0.00 82 1023.5
20260509130659 61 258 5.0 8.0 0.00 0.00 0.00 81 1023.6
20260509125653 61 263 6.0 10.0 0.00 0.00 0.00 83 1023.5
20260509125151 62 255 6.0 9.0 0.00 0.00 0.00 80 1023.5
20260509124650 62 259 6.0 8.0 0.00 0.00 0.00 79 1023.5
20260509123646 63 247 5.0 7.0 0.00 0.00 0.00 71 1023.6
20260509123144 63 218 6.0 8.0 0.00 0.00 0.00 65 1023.5
20260509122643 63 213 7.0 8.0 0.00 0.00 0.00 64 1023.5
20260509122140 63 210 8.0 9.0 0.00 0.00 0.00 65 1023.6
20260509121637 63 211 7.0 9.0 0.00 0.00 0.00 65 1023.6
20260509121136 63 206 8.0 10.0 0.00 0.00 0.00 65 1023.5
20260509115627 63 202 9.0 10.0 0.00 0.00 0.00 64 1023.6
20260509115125 63 200 8.0 9.0 0.00 0.00 0.00 65 1023.6
20260509114624 63 200 8.0 9.0 0.00 0.00 0.00 65 1023.6
20260509114123 63 199 7.0 10.0 0.00 0.00 0.00 65 1023.6
20260509113620 63 204 7.0 8.0 0.00 0.00 0.00 65 1023.6
20260509113118 64 194 7.0 10.0 0.00 0.00 0.00 63 1023.6
20260509112616 64 198 7.0 10.0 0.00 0.00 0.00 63 1023.6
20260509112114 64 194 8.0 11.0 0.00 0.00 0.00 63 1023.6
20260509111611 64 195 7.0 10.0 0.00 0.00 0.00 63 1023.6
20260509111110 64 198 6.0 8.0 0.00 0.00 0.00 63 1023.6
20260509110609 64 195 7.0 9.0 0.00 0.00 0.00 63 1023.6
20260509110107 64 193 6.0 8.0 0.00 0.00 0.00 63 1023.5
20260509105605 64 189 6.0 7.0 0.00 0.00 0.00 64 1023.5
20260509104600 64 192 8.0 10.0 0.00 0.00 0.00 63 1023.4
20260509103554 64 189 7.0 10.0 0.00 0.00 0.00 62 1023.5
20260509103052 64 188 8.0 11.0 0.00 0.00 0.00 62 1023.4
20260509102551 64 185 7.0 10.0 0.00 0.00 0.00 63 1023.4
20260509102048 64 186 8.0 10.0 0.00 0.00 0.00 63 1023.3
20260509101547 64 184 8.0 11.0 0.00 0.00 0.00 64 1023.3
20260509101046 64 182 8.0 11.0 0.00 0.00 0.00 64 1023.2
20260509100544 64 184 9.0 12.0 0.00 0.00 0.00 64 1023.2
20260509100042 64 180 9.0 12.0 0.00 0.00 0.00 63 1023.2
20260509095541 64 181 9.0 12.0 0.00 0.00 0.00 62 1023.1
20260509095039 64 181 9.0 12.0 0.00 0.00 0.00 61 1023.2
20260509094537 64 181 9.0 11.0 0.00 0.00 0.00 61 1023.1
20260509094036 64 180 9.0 11.0 0.00 0.00 0.00 62 1023.1
20260509093533 64 179 9.0 13.0 0.00 0.00 0.00 62 1023.1
20260509093032 64 182 10.0 13.0 0.00 0.00 0.00 64 1023.1
20260509092530 64 179 9.0 12.0 0.00 0.00 0.00 64 1023.1
20260509092028 64 179 10.0 13.0 0.00 0.00 0.00 64 1023.0
20260509090521 64 182 9.0 12.0 0.00 0.00 0.00 65 1022.9
20260509090020 64 179 9.0 12.0 0.00 0.00 0.00 65 1022.9
20260509085519 64 181 9.0 12.0 0.00 0.00 0.00 66 1022.9
20260509084513 64 178 9.0 12.0 0.00 0.00 0.00 66 1022.8
20260509084010 64 177 9.0 12.0 0.00 0.00 0.00 65 1022.8
20260509082502 64 183 9.0 12.0 0.00 0.00 0.00 65 1022.6
20260509082001 64 178 8.0 12.0 0.00 0.00 0.00 65 1022.6
20260509081500 64 182 10.0 15.0 0.00 0.00 0.00 64 1022.5
20260509080959 64 181 10.0 14.0 0.00 0.00 0.00 63 1022.4
20260509080458 64 186 10.0 14.0 0.00 0.00 0.00 63 1022.3
20260509075956 64 186 9.0 13.0 0.00 0.00 0.00 65 1022.3
20260509075455 64 185 10.0 13.0 0.00 0.00 0.00 65 1022.2
20260509074953 64 183 10.0 15.0 0.00 0.00 0.00 65 1022.2
20260509074452 64 183 9.0 14.0 0.00 0.00 0.00 65 1022.1
20260509072943 65 184 10.0 16.0 0.00 0.00 0.00 63 1022.0
20260509072442 64 182 9.0 13.0 0.00 0.00 0.00 62 1021.9
20260509071940 65 187 9.0 14.0 0.00 0.00 0.00 62 1021.9
20260509070935 65 189 10.0 14.0 0.00 0.00 0.00 61 1021.8
20260509070433 65 188 10.0 15.0 0.00 0.00 0.00 61 1021.7
20260509065427 65 194 11.0 17.0 0.00 0.00 0.00 59 1021.6
20260509063919 66 193 10.0 15.0 0.00 0.00 0.00 59 1021.5
20260509063417 66 197 8.0 13.0 0.00 0.00 0.00 59 1021.5
20260509062917 66 184 8.0 13.0 0.00 0.00 0.00 59 1021.4
20260509062415 66 194 10.0 16.0 0.00 0.00 0.00 59 1021.5
20260509061913 67 197 10.0 16.0 0.00 0.00 0.00 59 1021.4
20260509061412 67 197 7.0 12.0 0.00 0.00 0.00 60 1021.4